Current weather by "City, St" or "zip code"  
 
Advertise Here

Current Conditions: Coffeyville, Coffeyville Municipal Airport, KS

Fog/Mist


55.0 F

Last Updated on Feb 28 2021, 5:47 am CST
Humidity: 93%
Wind Speed: NW 8.1 mph
Barometer 29.79 in
Dewpoint: 53.1 F
Visibility: 6.00 mi
Precip: --
Heat Index: NA
Wind Chill: 53 F
Current conditions at:

Coffeyville, Coffeyville Municipal Airport, KS (KCFV)

Lat: 37.09111 Lon: 95.56639

Local Radar Image active severe weather and emergency alerts image image weather storm and storm spotter reports image weather observation monitoring service image
Local
Radar
Active
Alerts
Storm Reports Obs
Monitoring

Sign-up For Email & Text Message Weather Alert Notification Services


Advertise Here

Observation History for Coffeyville, Coffeyville Municipal Airport, KS


Time Wind
(mph)
Vis
(mi)
Weather Precip (in) Temperature (F) Relative
Humidity
Wind
Chill
(F)
Heat
Index
(F)
Pressure
Air Dwpt altimeter
(in)
sea level
(mb)
Rmks
5:47 am CST NW 8.1 6.00 Fog/Mist -- 55.0 53.1 93% 53 NA 29.79 1008.6
4:52 am CST W 3.5 0.25 Fog 00.01 54.0 53.1 97% NA NA 29.77 1007.9
3:52 am CST S 5.8 0.50 Fog 00.01 54.0 53.1 97% 53 NA 29.75 1007.1
2:52 am CST S 4.6 1.00 Fog/Mist Trace 55.0 53.1 93% 54 NA 29.75 1007.1
1:52 am CST S 8.1 5.00 Fog/Mist -- 56.0 53.1 90% 54 NA 29.76 1007.5
12:52 am CST S 11.5 6.00 Fog/Mist -- 56.0 53.1 90% 53 NA 29.75 1007.2
11:52 pm CST S 15.0 9.00 Overcast -- 56.0 53.1 90% 52 NA 29.74 1007.0
10:52 pm CST S 13.8 10.00 Overcast -- 56.0 52.0 87% 53 NA 29.75 1007.3
9:52 pm CST S 12.7 10.00 Overcast -- 55.0 48.9 80% 52 NA 29.76 1007.8
8:52 pm CST S 11.5 10.00 Overcast -- 56.0 46.9 72% 53 NA 29.77 1008.0
7:52 pm CST S 12.7 10.00 Overcast -- 56.0 45.0 67% 53 NA 29.77 1008.1
6:52 pm CST S 9.2 10.00 Overcast -- 57.0 42.1 58% 55 NA 29.78 1008.4
5:52 pm CST S 12.7 10.00 Overcast -- 58.0 41.0 53% 55 NA 29.77 1008.1
4:52 pm CST S 13.8 G 25.3 10.00 Overcast -- 62.0 35.1 37% 60 NA 29.77 1008.1
3:52 pm CST S 17.3 G 25.3 10.00 Mostly Cloudy -- 64.0 36.0 35% NA NA 29.78 1008.4
2:52 pm CST S 20.7 G 28.8 10.00 Mostly Cloudy and Breezy -- 64.0 36.0 35% NA NA 29.79 1009.0
1:52 pm CST SE 17.3 G 25.3 10.00 Fair -- 64.0 37.9 38% NA NA 29.81 1009.5
12:52 pm CST S 20.7 G 28.8 10.00 Fair and Breezy -- 65.0 37.9 37% NA NA 29.87 1011.5
11:52 am CST SE 15.0 10.00 Fair -- 61.0 41.0 48% 59 NA 29.91 1013.0
10:52 am CST SE 11.5 10.00 Fair -- 56.0 44.1 65% 53 NA 29.94 1014.1
9:52 am CST SE 9.2 10.00 Mostly Cloudy -- 45.0 43.0 93% 40 NA 29.96 1015.0
8:52 am CST SE 8.1 0.25 Fog -- 41.0 39.0 93% 36 NA 29.98 1015.6
7:52 am CST S 6.9 0.15 Fog -- 38.0 36.0 93% 33 NA 29.97 1015.1
6:52 am CST S 6.9 0.50 Fog -- 37.0 35.1 93% 32 NA 29.96 1014.7

Regional Weather Observation


Coffeyville, Coffeyville Municipal Airport, KS (KCFV)

Fog/Mist
55.0 F

Parsons, Tri-City Airport, KS (KPPF)

Fair
63.0 F

Chanute, Chanute Martin Johnson Airport, KS (KCNU)

Overcast
51.0 F

Allen County Airport, KS (KK88)

Overcast
49.0 F

Lt. William M. Milliken Airport, KS (K13K)

Overcast
43.0 F

Bartlesville, Bartlesville Municipal Airport, OK (KBVO)

Overcast
55.0 F
Advertise Here

Advertise Here